Погода в Линейном

Россия / Астраханская область     46°15′11″N   47°24′51″E
темп.,
°C
ветер,
м/с
пор.,
м/с
влажн.,
%
обл.,
%
осадки,
мм/ч
давл.,
гПа
погр.,
м
29 июля, чт
чт2901:00+26зюз333815 0.0 101318
04:00+23з57480 0.0 1013132
07:00+25зсз35425 0.0 1014123
10:00+30з232810 0.0 1014616
13:00+32ю222531 0.0 10132405
16:00+32ю222377 0.0 10111990
19:00+32ююв32243 0.0 10101019
22:00+27ююв712443 0.0 1012289
30 июля, пт
пт3001:00+26ю59505 0.0 1013202
04:00+25ююз46492 0.0 1012112
07:00+25ююз35470 0.0 1013134
10:00+29ю44350 0.0 1013544
13:00+30ю33290 0.0 10121116
16:00+32ю76290 0.0 10111107
19:00+30ююв78300 0.0 1011450
22:00+26ююв58456 0.0 1011174
31 июля, сб
сб3101:00+25ю45523 0.0 101181
04:00+24ююз22571 0.0 101121
07:00+25в22525 0.0 101157
10:00+29юв23342 0.0 1011499
13:00+31ююз23260 0.0 10101524
16:00+33ю562595 0.0 10091218
19:00+31ю5727100 0.0 1010405
22:00+28ю333692 0.0 101034
1 августа, вс
вс101:00+26юв344442 0.0 101047
04:00+24вюв11443 0.0 101011
07:00+27св33320 0.0 101148
10:00+33всв34220 0.0 1011613
13:00+36св45180 0.0 10102059
16:00+37юв56200 0.0 10082675
19:00+33ююв710310 0.0 1009474
22:00+27ю47520 0.0 1010120
2 августа, пн
пн201:00+26ююв23611 0.0 101036
04:00+25юв33580 0.0 101028
07:00+26вюв33520 0.0 101192
10:00+31ююв45360 0.0 1011465
13:00+34ююв682646 0.0 10111010
16:00+35ю68224 0.0 10091059
19:00+33ю5727100 0.0 1010258
22:00+29ююв443599 0.0 101042